Weather History for Huntingburg, IN

Change the Weather History Date:

Saturday, January 4, 2014

  Actual Average Record
Temperature  
Mean Temperature 30 °F -  
Max Temperature 41 °F 39 °F 66 °F (1997)
Min Temperature 19 °F 26 °F 6 °F (1999)
Degree Days  
Heating Degree Days 35    
Moisture  
Dew Point 16 °F    
Average Humidity 53    
Maximum Humidity 68    
Minimum Humidity 42    
Precipitation  
Precipitation 0.00 in - - ()
Sea Level Pressure  
Sea Level Pressure 30.11 in    
Wind  
Wind Speed 12 mph (South)    
Max Wind Speed 29 mph    
Max Gust Speed 38 mph    
Visibility 10 miles    
Events      
Averages and records for this station are not official NWS values.
T = Trace of Precipitation, MM = Missing Value Source: NWS Daily Summary

Daily Weather History Graph

Daily Weather History Graph

Search for Another Location

Airport:

Trip Planner

Search our weather history database for the weather conditions in past years. The results will help you decide how hot, cold, wet, or windy it might be!

Date:

Astronomy

Jan. 04, 2014 Rise Set
Actual Time 8:04 AM EST 5:40 PM EST
Civil Twilight 7:35 AM EST 6:10 PM EST
Nautical Twilight 7:02 AM EST 6:43 PM EST
Astronomical Twilight 6:30 AM EST 7:15 PM EST
Moon 10:13 AM EST (1/4) 9:56 PM EST (1/4)
Length of Visible Light 10h 34m
Length of Day
9h 36m
Waxing Crescent, 15% of the Moon is Illuminated
Jan 4
Waxing Crescent
Jan 7
First Quarter
Jan 15
Full
Jan 24
Last Quarter
Jan 30
New

Hourly Weather History & Observations

Time (EST) Temp. Windchill Dew Point Humidity Pressure Visibility Wind Dir Wind Speed Gust Speed Precip Events Conditions
12:15 AM 19.4 °F 10.4 °F 10.4 °F 68% 30.22 in 10.0 mi South 6.9 mph - N/A   Clear
12:35 AM 21.2 °F 11.7 °F 10.4 °F 63% 30.22 in 10.0 mi South 8.1 mph - N/A   Clear
12:55 AM 21.2 °F 10.9 °F 10.4 °F 63% 30.21 in 10.0 mi South 9.2 mph - N/A   Clear
1:15 AM 21.2 °F 10.1 °F 10.4 °F 63% 30.21 in 10.0 mi South 10.4 mph - N/A   Clear
1:35 AM 21.2 °F 10.9 °F 10.4 °F 63% 30.21 in 10.0 mi South 9.2 mph - N/A   Clear
1:55 AM 21.2 °F 11.7 °F 10.4 °F 63% 30.20 in 10.0 mi South 8.1 mph - N/A   Clear
2:15 AM 21.2 °F 10.9 °F 10.4 °F 63% 30.20 in 10.0 mi South 9.2 mph - N/A   Clear
2:35 AM 21.2 °F 10.9 °F 10.4 °F 63% 30.19 in 10.0 mi South 9.2 mph - N/A   Clear
2:55 AM 21.2 °F 10.1 °F 10.4 °F 63% 30.19 in 10.0 mi South 10.4 mph - N/A   Clear
3:15 AM 21.2 °F 10.9 °F 10.4 °F 63% 30.19 in 10.0 mi South 9.2 mph - N/A   Clear
3:35 AM 21.2 °F 10.1 °F 10.4 °F 63% 30.19 in 10.0 mi South 10.4 mph - N/A   Clear
3:55 AM 21.2 °F 9.5 °F 10.4 °F 63% 30.19 in 10.0 mi South 11.5 mph - N/A   Clear
4:15 AM 21.2 °F 9.5 °F 10.4 °F 63% 30.19 in 10.0 mi South 11.5 mph - N/A   Clear
4:35 AM 21.2 °F 8.9 °F 12.2 °F 68% 30.18 in 10.0 mi South 12.7 mph - N/A   Clear
4:55 AM 21.2 °F 9.5 °F 12.2 °F 68% 30.18 in 10.0 mi South 11.5 mph 18.4 mph N/A   Clear
5:15 AM 21.2 °F 9.5 °F 12.2 °F 68% 30.18 in 10.0 mi South 11.5 mph - N/A   Clear
5:35 AM 23.0 °F 10.6 °F 12.2 °F 63% 30.18 in 10.0 mi South 13.8 mph - N/A   Clear
5:55 AM 23.0 °F 11.1 °F 12.2 °F 63% 30.18 in 10.0 mi South 12.7 mph - N/A   Clear
6:15 AM 23.0 °F 11.1 °F 12.2 °F 63% 30.17 in 10.0 mi South 12.7 mph 18.4 mph N/A   Clear
6:35 AM 23.0 °F 11.1 °F 12.2 °F 63% 30.17 in 10.0 mi South 12.7 mph 17.3 mph N/A   Clear
6:55 AM 24.8 °F 14.0 °F 12.2 °F 59% 30.17 in 10.0 mi South 11.5 mph 17.3 mph N/A   Clear
7:15 AM 24.8 °F 13.4 °F 12.2 °F 59% 30.17 in 10.0 mi South 12.7 mph - N/A   Clear
7:35 AM 24.8 °F 14.0 °F 12.2 °F 59% 30.17 in 10.0 mi South 11.5 mph - N/A   Clear
7:55 AM 24.8 °F 12.9 °F 12.2 °F 59% 30.17 in 10.0 mi South 13.8 mph - N/A   Clear
8:15 AM 24.8 °F 11.9 °F 12.2 °F 59% 30.16 in 10.0 mi South 16.1 mph - N/A   Clear
8:35 AM 24.8 °F 12.4 °F 14.0 °F 64% 30.16 in 10.0 mi South 15.0 mph 23.0 mph N/A   Clear
8:55 AM 26.6 °F 13.4 °F 14.0 °F 59% 30.16 in 10.0 mi South 18.4 mph 23.0 mph N/A   Clear
9:15 AM 26.6 °F 14.3 °F 15.8 °F 64% 30.16 in 10.0 mi South 16.1 mph 23.0 mph N/A   Clear
9:35 AM 28.4 °F 15.1 °F 15.8 °F 59% 30.16 in 10.0 mi South 20.7 mph 27.6 mph N/A   Clear
9:55 AM 30.2 °F 15.7 °F 15.8 °F 55% 30.15 in 10.0 mi South 27.6 mph 34.5 mph N/A   Clear
10:15 AM 30.2 °F 15.4 °F 15.8 °F 55% 30.15 in 10.0 mi SSW 28.8 mph 38.0 mph N/A   Clear
10:35 AM 32.0 °F 19.5 °F 15.8 °F 51% 30.15 in 10.0 mi South 21.9 mph 33.4 mph N/A   Clear
10:55 AM 33.8 °F 22.2 °F 15.8 °F 48% 30.15 in 10.0 mi South 20.7 mph 29.9 mph N/A   Clear
11:15 AM 33.8 °F 22.5 °F 15.8 °F 48% 30.15 in 10.0 mi SSW 19.6 mph 28.8 mph N/A   Clear
11:35 AM 33.8 °F 21.9 °F 17.6 °F 52% 30.13 in 10.0 mi South 21.9 mph 31.1 mph N/A   Clear
11:55 AM 35.6 °F 24.0 °F 17.6 °F 48% 30.12 in 10.0 mi SSW 23.0 mph 28.8 mph N/A   Clear
12:15 PM 35.6 °F 24.8 °F 17.6 °F 48% 30.11 in 10.0 mi SSW 19.6 mph 28.8 mph N/A   Clear
12:35 PM 37.4 °F 27.5 °F 17.6 °F 45% 30.11 in 10.0 mi SSW 18.4 mph 23.0 mph N/A   Clear
12:55 PM 37.4 °F 27.8 °F 17.6 °F 45% 30.10 in 10.0 mi SSW 17.3 mph 27.6 mph N/A   Clear
1:15 PM 37.4 °F 27.2 °F 19.4 °F 48% 30.09 in 10.0 mi SSW 19.6 mph 26.5 mph N/A   Clear
1:35 PM 39.2 °F 30.2 °F 19.4 °F 45% 30.08 in 10.0 mi South 17.3 mph 23.0 mph N/A   Clear
1:55 PM 39.2 °F 29.8 °F 19.4 °F 45% 30.07 in 10.0 mi South 18.4 mph 27.6 mph N/A   Clear
2:15 PM 39.2 °F 30.5 °F 19.4 °F 45% 30.07 in 10.0 mi South 16.1 mph 25.3 mph N/A   Clear
2:35 PM 39.2 °F 30.2 °F 19.4 °F 45% 30.07 in 10.0 mi SSW 17.3 mph 25.3 mph N/A   Clear
2:55 PM 41.0 °F 32.8 °F 19.4 °F 42% 30.07 in 10.0 mi SSW 16.1 mph 23.0 mph N/A   Clear
3:15 PM 41.0 °F 31.9 °F 19.4 °F 42% 30.06 in 10.0 mi South 19.6 mph - N/A   Clear
3:35 PM 41.0 °F 32.5 °F 19.4 °F 42% 30.06 in 10.0 mi South 17.3 mph 24.2 mph N/A   Clear
3:55 PM 41.0 °F 32.2 °F 19.4 °F 42% 30.06 in 10.0 mi SSW 18.4 mph 26.5 mph N/A   Clear
4:15 PM 41.0 °F 33.9 °F 19.4 °F 42% 30.06 in 10.0 mi South 12.7 mph - N/A   Clear
4:35 PM 41.0 °F 33.9 °F 19.4 °F 42% 30.06 in 10.0 mi South 12.7 mph - N/A   Clear
4:55 PM 39.2 °F 31.2 °F 19.4 °F 45% 30.04 in 10.0 mi South 13.8 mph - N/A   Clear
5:15 PM 39.2 °F 31.6 °F 19.4 °F 45% 30.03 in 10.0 mi South 12.7 mph 16.1 mph N/A   Mostly Cloudy
5:35 PM 39.2 °F 32.0 °F 19.4 °F 45% 30.01 in 10.0 mi SSE 11.5 mph - N/A   Mostly Cloudy
5:55 PM 37.4 °F 30.8 °F 19.4 °F 48% 30.01 in 10.0 mi South 9.2 mph - N/A   Clear
6:15 PM 37.4 °F 30.8 °F 19.4 °F 48% 30.01 in 10.0 mi South 9.2 mph - N/A   Scattered Clouds
6:35 PM 37.4 °F 31.4 °F 19.4 °F 48% 30.01 in 10.0 mi SSE 8.1 mph - N/A   Mostly Cloudy
6:55 PM 39.2 °F 32.0 °F 19.4 °F 45% 30.01 in 10.0 mi South 11.5 mph 17.3 mph N/A   Overcast
7:15 PM 39.2 °F 32.5 °F 19.4 °F 45% 30.00 in 10.0 mi SSE 10.4 mph 16.1 mph N/A   Overcast
7:35 PM 37.4 °F 30.8 °F 19.4 °F 48% 30.01 in 10.0 mi South 9.2 mph 16.1 mph N/A   Overcast
7:55 PM 39.2 °F 33.6 °F 19.4 °F 45% 30.00 in 10.0 mi SSE 8.1 mph - N/A   Overcast
8:15 PM 39.2 °F 33.0 °F 19.4 °F 45% 30.02 in 10.0 mi South 9.2 mph - N/A   Overcast
8:35 PM 39.2 °F 34.2 °F 19.4 °F 45% 30.03 in 10.0 mi SSW 6.9 mph - N/A   Overcast
8:55 PM 39.2 °F 34.2 °F 19.4 °F 45% 30.04 in 10.0 mi SW 6.9 mph - N/A   Overcast
9:15 PM 39.2 °F 34.2 °F 19.4 °F 45% 30.04 in 10.0 mi SW 6.9 mph - N/A   Overcast
9:35 PM 39.2 °F 35.0 °F 19.4 °F 45% 30.04 in 10.0 mi SSW 5.8 mph - N/A   Overcast
9:55 PM 39.2 °F 34.2 °F 19.4 °F 45% 30.03 in 10.0 mi SSW 6.9 mph - N/A   Overcast
10:15 PM 39.2 °F 33.6 °F 19.4 °F 45% 30.04 in 10.0 mi South 8.1 mph - N/A   Overcast
10:35 PM 39.2 °F 34.2 °F 19.4 °F 45% 30.04 in 10.0 mi SSW 6.9 mph - N/A   Overcast
10:55 PM 39.2 °F 34.2 °F 19.4 °F 45% 30.04 in 10.0 mi SSW 6.9 mph - N/A   Overcast
11:15 PM 39.2 °F 34.2 °F 19.4 °F 45% 30.04 in 10.0 mi SSW 6.9 mph - N/A   Overcast
11:35 PM 39.2 °F 33.0 °F 19.4 °F 45% 30.04 in 10.0 mi South 9.2 mph - N/A   Overcast
11:55 PM 39.2 °F 32.5 °F 21.2 °F 49% 30.04 in 10.0 mi South 10.4 mph - N/A   Overcast